Location: Aalen
(48.8330°N, 10.1000°E)
Time: 00:57:43
(UTC+02:00)

O/OREOS (USA 219) - Pass Details

Date: 08 April 2023
Orbit: 621 x 646 km, 72.0° (Epoch: 22 May)

Event Time Altitude Azimuth Distance (km) Brightness Sun altitude
Exits shadow 05:10:00 26° 236° (SW) 1,259 ? -15.2°
Maximum altitude 05:12:19 52° 301° (WNW) 797 ? -14.9°
Drops below altitude 10° 05:16:46 10° 18° (NNE) 2,027 ? -14.2°
Sets 05:19:05 0° 24° (NNE) 2,935 ? -13.9°
